INMARSAT 2-F4

导读

INMARSAT 2-F4是国际海事卫星组织(INMARSAT)发射的第二代海事通信卫星,于1992年4月15日发射升空。作为全球海事通信网络的重要组成部分,它主要为海上船舶、远洋运输提供稳定的通信导航服务,支持语音与数据传输,保障远洋航行安全与航运调度效率,延续了第二代海事卫星系统的可靠服务能力,在早期全球海事通信覆盖中发挥了关键作用。

基本信息
目录编号:
21940
目录名称:
INMARSAT 2-F4
国际标识:
1992-021B
轨道中心:
EARTH
卫星名称:
INMARSAT 2-F4
卫星全名:
--
卫星状态:
在轨 (已飞行12521 天)
发射日期:
1992-04-15 UTC
国别 :
(Inmarsat)
星等 :
--
轨道信息
数据来源 国际轨道数据
星历时间: 2026-07-26T17:57:58+0800
1天前
查看轨道信息
半长轴: 42830.39km
偏心率: 0.0007576
轨道倾角: 12.195°
近地点辐角 169.033°
升交点赤经 15.460°
平近点角 24.860°
近地点: 36419.804km
远地点: 36484.702km
周期: 1470.238分钟
每日圈数: 0.979433
详细信息
使用方式:
暂无
2D轨道图
3D轨道图
轨道高度分析图
轨道倾角分析图
轨道综合分析图
查看轨道综合分析图